Home > Weather > Hameln > Past weeks

Flag for Germany Weather for the Past 2 Weeks in Hameln, Lower Saxony, Germany

Now
32 °F

Drizzle. Ice fog.


Feels Like: 32 °F
Forecast: 28 / 35 °F
Wind: 2 mph from North

Location: Bueckeburg

Current Time: Feb 14, 2016 at 10:20:59 PM

Latest Report: Feb 14, 2016 at 9:20 PM


Visibility: 2 mi

Pressure: 29.42 "Hg

Humidity: 100%

Dew point: 32 °F

Location of HamelnLocation

Historic Weather in Hameln — Graph

°F

Hameln Temperature Yesterday

Maximum temperature yesterday: 45 °F (at 1:20 PM)
Minimum temperature yesterday: 25 °F (at 5:20 AM)
Average temperature yesterday: 34 °F

High & Low Weather Summary for the Past Weeks

 TemperatureHumidityPressure
High54 °F (Feb 1, 10:53 AM)100% (Jan 31, 9:20 PM)30.24 "Hg (Jan 31, 9:20 PM)
Low25 °F (Feb 13, 5:20 AM)53% (Feb 13, 1:20 PM)28.80 "Hg (Feb 9, 6:20 PM)
Average42 °F83%29.62 "Hg
* Reported Jan 30 8:00 PM — Feb 14 8:20 PM, Hameln, Weather by CustomWeather, © 2016

Note: Actual official high and low records may vary slightly from our data, if they occured in-between our weather recording intervals... More about our weather records

Advertising

Hameln Weather History for the Previous 24 Hours

 ConditionsComfort  
Time TempWeatherWind HumidityBarometerVisibility
8:20 PM
Sun, Feb 14
32 °FDrizzle. Ice fog.2 mph100%29.39 "Hg1 mi
7:20 PM32 °FDrizzle. Ice fog.3 mph100%29.36 "Hg1 mi
6:20 PM34 °FDrizzle. Fog.5 mph100%29.33 "Hg1 mi
5:20 PM34 °FFog.6 mph100%29.27 "Hg2 mi
4:20 PM34 °FDrizzle. Fog.7 mph100%29.24 "Hg2 mi
3:20 PM36 °FFog.8 mph93%29.21 "Hg2 mi
2:20 PM36 °FFog.10 mph93%29.21 "Hg3 mi
1:20 PM34 °FFog.8 mph100%29.18 "Hg2 mi
12:20 PM34 °FLight snow. Fog.9 mph100%29.18 "Hg2 mi
11:20 AM34 °FLow clouds.8 mph100%29.15 "Hg4 mi
10:20 AM34 °FLight snow. Fog.8 mph93%29.15 "Hg3 mi
10:02 AM34 °FFog.9 mph93%29.12 "Hg2 mi
9:20 AM32 °FLight snow. Ice fog.10 mph100%29.12 "Hg1 mi
8:20 AM32 °FSnow. Ice fog.8 mph100%29.12 "Hg1 mi
7:20 AM34 °FLight rain. Fog.12 mph93%29.09 "Hg2 mi
6:20 AM34 °FLight rain. Fog.12 mph93%29.09 "Hg3 mi
5:20 AM36 °FLight rain. Fog.13 mph93%29.09 "Hg3 mi
4:20 AM36 °FLight rain. Partly cloudy.14 mph93%29.09 "Hg4 mi
3:20 AM36 °FLight rain. Passing clouds.10 mph93%29.09 "Hg4 mi
2:20 AM36 °FPassing clouds.12 mph93%29.09 "Hg4 mi
1:20 AM37 °FPassing clouds.8 mph81%29.09 "HgN/A
12:20 AM37 °FPassing clouds.8 mph81%29.12 "HgN/A
11:20 PM
Sat, Feb 13
37 °FPassing clouds.9 mph81%29.12 "HgN/A
10:20 PM37 °FPassing clouds.12 mph81%29.15 "HgN/A
Weather by CustomWeather, © 2016

See weather overviewHow to use our weather pages